This is the latest recevied weather packets stored in our database for station/object KF0TNT. If no packets are shown the sender has not sent any weather packets the latest 10 day(s).
| Time | Temp. | Humidity | Pressure | Rain* | Wind** | Luminosity | Snow |
|---|---|---|---|---|---|---|---|
| 1777511497 | 5.56° C | 82% | 1021 hPa | 0 mm | - | 16 W/m² | - |
| 1777511195 | 5° C | 83% | 1020.7 hPa | 0 mm | - | 13 W/m² | - |
| 1777510890 | 5° C | 83% | 1020.6 hPa | 0 mm | - | 18 W/m² | - |
| 1777510587 | 5° C | 83% | 1020.7 hPa | 0 mm | - | 24 W/m² | - |
| 1777510283 | 5° C | 81% | 1020.9 hPa | 0 mm | - | 33 W/m² | - |
| 1777509980 | 5° C | 82% | 1020.6 hPa | 0 mm | - | 36 W/m² | - |
| 1777509676 | 5° C | 82% | 1020.7 hPa | 0.51 mm | - | 39 W/m² | - |
| 1777509373 | 5.56° C | 81% | 1020.7 hPa | 0.51 mm | - | 33 W/m² | - |
| 1777509070 | 5.56° C | 83% | 1020.9 hPa | 0.51 mm | - | 39 W/m² | - |
| 1777508767 | 5.56° C | 84% | 1020.7 hPa | 0.51 mm | - | 36 W/m² | - |
| 1777508464 | 5.56° C | 82% | 1020.5 hPa | 0.51 mm | - | 41 W/m² | - |
| 1777508161 | 5.56° C | 82% | 1020.6 hPa | 0.51 mm | - | 29 W/m² | - |
| 1777507857 | 5.56° C | 79% | 1020.7 hPa | 0.51 mm | - | 26 W/m² | - |
| 1777507555 | 6.11° C | 77% | 1020.5 hPa | 0.51 mm | - | 19 W/m² | - |
| 1777507251 | 6.11° C | 75% | 1020.6 hPa | 0 mm | - | 23 W/m² | - |
| 1777506949 | 6.11° C | 74% | 1020.9 hPa | 0 mm | - | 24 W/m² | - |
| 1777506646 | 6.11° C | 75% | 1020.6 hPa | 0 mm | - | 29 W/m² | - |
| 1777506342 | 6.11° C | 75% | 1020.2 hPa | 0 mm | - | 35 W/m² | - |
| 1777506038 | 6.11° C | 76% | 1020.4 hPa | 0 mm | - | 52 W/m² | - |
| 1777505733 | 6.67° C | 74% | 1020.4 hPa | 0 mm | - | 76 W/m² | - |
| 1777505432 | 6.67° C | 73% | 1020.1 hPa | 0 mm | - | 113 W/m² | - |
| 1777505128 | 6.67° C | 74% | 1020.1 hPa | 0 mm | - | 124 W/m² | - |
| 1777504825 | 7.22° C | 74% | 1019.7 hPa | 0 mm | - | 168 W/m² | - |
| 1777504522 | 7.22° C | 74% | 1020 hPa | 0 mm | - | 198 W/m² | - |
| 1777504217 | 6.67° C | 75% | 1019.9 hPa | 0 mm | - | 213 W/m² | - |
* Rain latest hour (hover to see other rain measurements)
** Current wind speed in m/s (hover to see current wind gust speed)